Track STARLINK-1851 now! 10-day predictions STARLINK-1851 is classified as:
1 46783U 20074AW 21055.91668981 -.00016810 00000-0 -11122-2 0 9999 2 46783 53.0465 286.2242 0001935 75.6327 25.2834 15.06401806 1856